Regional Weather Roundup
Issued by NWS

Home | Current Version | Previous Version | Graphics & Text | Print | Product List | Glossary Off
Versions: 1 2 3 4 5 6 7 8 9 10 11 12 13 14 15 16 17 18 19 20 21 22 23 24 25 26 27 28 29 30 31 32 33 34 35 36 37 38 39 40 41 42 43 44 45 46 47 48 49 50

000
ASUS43 KTOP 230859
RWRKS

WEATHER ROUNDUP FOR KANSAS
NATIONAL WEATHER SERVICE GOODLAND KS
400 AM CDT SAT JUL 23 2016

NOTE:  "FAIR" INDICATES FEW OR NO CLOUDS BELOW 12,000 FEET WITH NO
SIGNIFICANT WEATHER AND/OR OBSTRUCTIONS TO VISIBILITY.

KSZ001>006-013>018-027>032-041>047-231000-
NORTHWEST KANSAS

CITY           SKY/WX    TMP DP  RH WIND       PRES   REMARKS
GOODLAND       PTCLDY    69  66  90 E5        29.98F
HAYS           CLOUDY    82  57  42 NW13      29.95R
HILL CITY      CLOUDY    77  66  68 NE9       29.99R
RUSSELL        MOCLDY    83  62  49 S12       29.91S
$$

KSZ061>065-074>080-084>089-231000-
SOUTHWEST KANSAS

CITY           SKY/WX    TMP DP  RH WIND       PRES   REMARKS
DODGE CITY     CLOUDY    74  61  63 S9        29.98R
ELKHART          N/A     77  53  43 S9          N/A
GARDEN CITY    CLOUDY    71  61  70 SE8       29.96S
GREAT BEND     CLOUDY    82  61  47 S16       29.93S
LIBERAL        CLOUDY    73  55  53 S7        30.01R
$$

KSZ066>073-081>083-090>101-231000-
SOUTHEAST KANSAS

CITY           SKY/WX    TMP DP  RH WIND       PRES   REMARKS
CHANUTE        CLEAR     76  73  91 SE6       29.96S
COFFEYVILLE    CLEAR     76  71  85 SE3       29.96S
HUTCHINSON     CLEAR     78  64  61 S6        29.94S
NEWTON         CLEAR     76  69  79 SE6       29.97S
PARSONS        CLEAR     75  71  87 CALM      29.97S
WICHITA INTL   PTCLDY    78  67  68 S7        29.95R
WICHITA JABRA  CLEAR     77  69  76 S6        29.96R
WINFIELD       CLEAR     78  69  73 SE5       29.97R
$$

KSZ007>012-019>026-033>040-048>060-102>105-231000-
NORTHEAST KANSAS

CITY           SKY/WX    TMP DP  RH WIND       PRES   REMARKS
CONCORDIA      CLOUDY    81  67  62 S15       29.90S
EMPORIA        PTCLDY    78  70  76 S10       29.94F
LAWRENCE       CLEAR     76  72  87 SE9       29.94F
MANHATTAN      PTCLDY    84  68  58 SW6       29.92S
OLATHE IND     CLEAR     78  72  81 SE8       29.96F
OLATHE EXE     CLEAR     76  72  87 S5        29.97F
SALINA         CLOUDY    84  65  52 S8        29.91S
TOPEKA BILLARD MOCLDY    82  71  69 CALM      29.93S
TOPEKA FORBES  MOCLDY    82  71  69 S5        29.94S
$$




USA.gov is the U.S. government's official web portal to all federal, state and local government web resources and services.